| time (UTC) | temp F | wind direction | speed knots | gust knots | rain 1hr in | rain 24hr in | rain mn in | humidity % | barometer mb |
| 20260505153209 | 79 | 98 | 0.9 | 2.6 | 0.00 | 0.00 | 0.00 | 81 | 1010.2 |
| 20260505152706 | 79 | 201 | 0.0 | 0.9 | 0.00 | 0.00 | 0.00 | 82 | 1010.1 |
| 20260505152202 | 78 | 229 | 0.0 | 2.6 | 0.00 | 0.00 | 0.00 | 83 | 1010.2 |
| 20260505151657 | 78 | 182 | 0.9 | 3.5 | 0.00 | 0.00 | 0.00 | 83 | 1010.1 |
| 20260505151155 | 79 | 240 | 1.7 | 2.6 | 0.00 | 0.00 | 0.00 | 83 | 1009.9 |
| 20260505150651 | 78 | 107 | 3.5 | 6.1 | 0.00 | 0.00 | 0.00 | 85 | 1009.9 |
| 20260505150148 | 77 | 91 | 0.9 | 1.7 | 0.00 | 0.00 | 0.00 | 89 | 1010.1 |
| 20260505140616 | 77 | 159 | 0.0 | 1.7 | 0.00 | 0.00 | 0.00 | 86 | 1010.2 |
| 20260505140113 | 77 | 248 | 3.5 | 3.5 | 0.00 | 0.00 | 0.00 | 86 | 1010.1 |
| 20260505125030 | 75 | 118 | 0.0 | 3.5 | 0.00 | 0.00 | 0.00 | 89 | 1009.9 |
| 20260505124526 | 74 | 257 | 0.0 | 0.0 | 0.00 | 0.00 | 0.00 | 89 | 1009.8 |
| 20260505124022 | 74 | 194 | 0.9 | 1.7 | 0.00 | 0.00 | 0.00 | 89 | 1009.6 |
| 20260505123519 | 74 | 295 | 0.9 | 3.5 | 0.00 | 0.00 | 0.00 | 88 | 1009.6 |
| 20260505123015 | 74 | 141 | 0.0 | 1.7 | 0.00 | 0.00 | 0.00 | 88 | 1009.4 |
| 20260505122513 | 74 | 160 | 0.9 | 3.5 | 0.00 | 0.00 | 0.00 | 88 | 1009.4 |
| 20260505122009 | 74 | 185 | 0.0 | 2.6 | 0.00 | 0.00 | 0.00 | 88 | 1009.2 |
| 20260505121506 | 74 | 232 | 1.7 | 3.5 | 0.00 | 0.00 | 0.00 | 88 | 1009.3 |
| 20260505121002 | 74 | 233 | 0.0 | 0.9 | 0.00 | 0.00 | 0.00 | 89 | 1009.6 |
| 20260505120459 | 74 | 211 | 0.9 | 1.7 | 0.00 | 0.00 | 0.00 | 89 | 1009.6 |
| 20260505115958 | 74 | 237 | 0.0 | 0.0 | 0.00 | 0.00 | 0.00 | 89 | 1009.8 |
| 20260505115454 | 74 | 236 | 0.9 | 2.6 | 0.00 | 0.00 | 0.00 | 89 | 1009.6 |
| 20260505114952 | 74 | 212 | 0.9 | 1.7 | 0.00 | 0.00 | 0.00 | 89 | 1009.5 |
| 20260505114448 | 74 | 165 | 0.9 | 3.5 | 0.00 | 0.00 | 0.00 | 89 | 1009.3 |
| 20260505113945 | 74 | 115 | 0.0 | 1.7 | 0.00 | 0.00 | 0.00 | 89 | 1009.4 |
| 20260505113441 | 73 | 201 | 0.9 | 2.6 | 0.00 | 0.00 | 0.00 | 89 | 1009.5 |
| 20260505112937 | 73 | 181 | 0.9 | 1.7 | 0.00 | 0.00 | 0.00 | 89 | 1009.3 |
| 20260505112435 | 73 | 223 | 0.9 | 2.6 | 0.00 | 0.00 | 0.00 | 89 | 1009.3 |
| 20260505111931 | 73 | 201 | 0.0 | 1.7 | 0.00 | 0.00 | 0.00 | 89 | 1009.5 |
| 20260505111426 | 74 | 246 | 0.9 | 1.7 | 0.00 | 0.00 | 0.00 | 88 | 1009.5 |
| 20260505110923 | 74 | 238 | 0.9 | 1.7 | 0.00 | 0.00 | 0.00 | 88 | 1009.6 |
| 20260505110419 | 74 | 179 | 0.0 | 0.9 | 0.00 | 0.00 | 0.00 | 88 | 1009.7 |
| 20260505101850 | 73 | 198 | 0.0 | 1.7 | 0.00 | 0.00 | 0.00 | 88 | 1009.5 |
| 20260505101345 | 73 | 216 | 0.0 | 2.6 | 0.00 | 0.00 | 0.00 | 88 | 1009.4 |
| 20260505100841 | 73 | 196 | 0.0 | 1.7 | 0.00 | 0.00 | 0.00 | 87 | 1009.3 |
| 20260505100338 | 73 | 182 | 0.0 | 0.9 | 0.00 | 0.00 | 0.00 | 87 | 1009.2 |
| 20260505095833 | 73 | 218 | 0.0 | 1.7 | 0.00 | 0.00 | 0.00 | 87 | 1009.2 |
| 20260505095331 | 73 | 202 | 0.9 | 1.7 | 0.00 | 0.00 | 0.00 | 87 | 1009.5 |
| 20260505094827 | 73 | 176 | 0.9 | 2.6 | 0.00 | 0.00 | 0.00 | 87 | 1009.3 |
| 20260505094324 | 73 | 228 | 0.9 | 2.6 | 0.00 | 0.00 | 0.00 | 88 | 1009.5 |
| 20260505093820 | 73 | 226 | 1.7 | 2.6 | 0.00 | 0.00 | 0.00 | 88 | 1009.7 |
| 20260505093318 | 73 | 208 | 0.0 | 0.9 | 0.00 | 0.00 | 0.00 | 88 | 1009.9 |
| 20260505092814 | 73 | 205 | 0.9 | 0.9 | 0.00 | 0.00 | 0.00 | 88 | 1009.8 |
| 20260505092313 | 73 | 206 | 0.0 | 1.7 | 0.00 | 0.00 | 0.00 | 87 | 1009.7 |
| 20260505091810 | 73 | 229 | 0.0 | 0.9 | 0.00 | 0.00 | 0.00 | 87 | 1009.6 |
| 20260505091308 | 73 | 223 | 0.9 | 1.7 | 0.00 | 0.00 | 0.00 | 87 | 1009.6 |
| 20260505090805 | 73 | 207 | 0.9 | 1.7 | 0.00 | 0.00 | 0.00 | 87 | 1009.7 |
| 20260505090303 | 73 | 207 | 0.0 | 0.9 | 0.00 | 0.00 | 0.00 | 86 | 1009.9 |
| 20260505085800 | 73 | 186 | 0.0 | 1.7 | 0.00 | 0.00 | 0.00 | 86 | 1009.8 |
| 20260505085258 | 74 | 232 | 0.0 | 2.6 | 0.00 | 0.00 | 0.00 | 86 | 1009.6 |
| 20260505084756 | 74 | 215 | 0.0 | 0.9 | 0.00 | 0.00 | 0.00 | 86 | 1009.8 |
| 20260505084255 | 74 | 164 | 0.9 | 1.7 | 0.00 | 0.00 | 0.00 | 85 | 1009.7 |
| 20260505083751 | 74 | 166 | 1.7 | 1.7 | 0.00 | 0.00 | 0.00 | 85 | 1009.7 |
| 20260505083248 | 74 | 192 | 1.7 | 2.6 | 0.00 | 0.00 | 0.00 | 85 | 1009.7 |
| 20260505082744 | 74 | 213 | 0.0 | 0.9 | 0.00 | 0.00 | 0.00 | 85 | 1009.8 |
| 20260505082241 | 74 | 209 | 0.9 | 1.7 | 0.00 | 0.00 | 0.00 | 85 | 1009.8 |
| 20260505081737 | 74 | 136 | 1.7 | 2.6 | 0.00 | 0.00 | 0.00 | 85 | 1009.8 |
| 20260505081235 | 73 | 237 | 3.5 | 6.1 | 0.00 | 0.00 | 0.00 | 85 | 1009.9 |
| 20260505080731 | 73 | 224 | 0.9 | 2.6 | 0.00 | 0.00 | 0.00 | 85 | 1009.7 |
| 20260505080227 | 73 | 283 | 1.7 | 2.6 | 0.00 | 0.00 | 0.00 | 85 | 1010.1 |
| 20260505075723 | 73 | 230 | 0.0 | 0.9 | 0.00 | 0.00 | 0.00 | 85 | 1009.9 |
| 20260505075220 | 73 | 255 | 0.9 | 1.7 | 0.00 | 0.00 | 0.00 | 85 | 1009.9 |
| 20260505074717 | 73 | 292 | 0.0 | 0.9 | 0.00 | 0.00 | 0.00 | 85 | 1010.1 |
| 20260505074214 | 73 | 192 | 1.7 | 1.7 | 0.00 | 0.00 | 0.00 | 85 | 1010.0 |
| 20260505073712 | 73 | 227 | 0.0 | 3.5 | 0.00 | 0.00 | 0.00 | 85 | 1009.9 |
| 20260505073210 | 73 | 205 | 0.9 | 1.7 | 0.00 | 0.00 | 0.00 | 85 | 1010.0 |
| 20260505072705 | 73 | 178 | 0.9 | 0.9 | 0.00 | 0.00 | 0.00 | 85 | 1010.2 |
| 20260505072202 | 73 | 198 | 0.0 | 1.7 | 0.00 | 0.00 | 0.00 | 84 | 1010.2 |
| 20260505071657 | 73 | 192 | 0.9 | 0.9 | 0.00 | 0.00 | 0.00 | 84 | 1010.2 |
| 20260505071155 | 73 | 225 | 0.9 | 1.7 | 0.00 | 0.00 | 0.00 | 84 | 1010.3 |
| 20260505070653 | 73 | 238 | 0.9 | 1.7 | 0.00 | 0.00 | 0.00 | 85 | 1010.3 |
| 20260505070148 | 73 | 159 | 0.9 | 3.5 | 0.00 | 0.00 | 0.00 | 85 | 1010.5 |
| 20260505065645 | 73 | 167 | 0.9 | 1.7 | 0.00 | 0.00 | 0.00 | 85 | 1010.5 |
| 20260505065142 | 72 | 171 | 0.0 | 1.7 | 0.00 | 0.00 | 0.00 | 85 | 1010.7 |
| 20260505064638 | 72 | 208 | 0.9 | 2.6 | 0.00 | 0.00 | 0.00 | 85 | 1010.6 |
| 20260505064136 | 72 | 220 | 0.9 | 1.7 | 0.00 | 0.00 | 0.00 | 85 | 1010.8 |
| 20260505063634 | 72 | 232 | 0.0 | 0.9 | 0.00 | 0.00 | 0.00 | 85 | 1010.7 |
| 20260505063130 | 72 | 240 | 0.9 | 1.7 | 0.00 | 0.00 | 0.00 | 85 | 1011.0 |
| 20260505062626 | 72 | 199 | 0.0 | 0.9 | 0.00 | 0.00 | 0.00 | 84 | 1011.1 |
| 20260505062124 | 72 | 221 | 0.0 | 1.7 | 0.00 | 0.00 | 0.00 | 84 | 1010.9 |
| 20260505061621 | 72 | 225 | 0.0 | 1.7 | 0.00 | 0.00 | 0.00 | 84 | 1011.1 |
| 20260505061119 | 72 | 198 | 0.0 | 2.6 | 0.00 | 0.00 | 0.00 | 84 | 1011.3 |
| 20260505060616 | 72 | 181 | 1.7 | 2.6 | 0.00 | 0.00 | 0.00 | 84 | 1011.2 |
| 20260505060113 | 72 | 190 | 1.7 | 3.5 | 0.00 | 0.00 | 0.00 | 84 | 1011.2 |
| 20260505055608 | 72 | 204 | 0.9 | 1.7 | 0.00 | 0.00 | 0.00 | 83 | 1011.2 |
| 20260505055105 | 72 | 230 | 0.9 | 1.7 | 0.00 | 0.00 | 0.00 | 83 | 1011.3 |
| 20260505054602 | 72 | 185 | 0.9 | 1.7 | 0.00 | 0.00 | 0.00 | 84 | 1011.3 |
| 20260505054100 | 72 | 240 | 0.9 | 2.6 | 0.00 | 0.00 | 0.00 | 83 | 1011.4 |
| 20260505053557 | 72 | 235 | 0.9 | 1.7 | 0.00 | 0.00 | 0.00 | 83 | 1011.2 |
| 20260505053053 | 72 | 293 | 0.0 | 1.7 | 0.00 | 0.00 | 0.00 | 83 | 1011.2 |
| 20260505052550 | 72 | 197 | 1.7 | 1.7 | 0.00 | 0.00 | 0.00 | 83 | 1011.2 |
| 20260505052048 | 72 | 230 | 0.0 | 0.0 | 0.00 | 0.00 | 0.00 | 83 | 1011.4 |
| 20260505051544 | 72 | 207 | 0.0 | 1.7 | 0.00 | 0.00 | 0.00 | 83 | 1011.3 |
| 20260505051043 | 72 | 223 | 0.0 | 2.6 | 0.00 | 0.00 | 0.00 | 83 | 1011.5 |
| 20260505050541 | 72 | 200 | 0.0 | 2.6 | 0.00 | 0.00 | 0.00 | 83 | 1011.3 |
| 20260505041508 | 72 | 196 | 0.0 | 0.9 | 0.00 | 0.00 | 0.00 | 81 | 1011.9 |
| 20260505041006 | 72 | 165 | 0.0 | 1.7 | 0.00 | 0.00 | 0.00 | 81 | 1011.7 |
| 20260505040503 | 72 | 189 | 0.0 | 0.9 | 0.00 | 0.00 | 0.00 | 81 | 1011.8 |
| 20260505040000 | 72 | 213 | 0.0 | 2.6 | 0.00 | 0.00 | 0.00 | 80 | 1011.8 |
| 20260505035455 | 72 | 210 | 0.0 | 2.6 | 0.00 | 0.00 | 0.00 | 80 | 1011.9 |
| 20260505034953 | 72 | 284 | 0.0 | 0.9 | 0.00 | 0.00 | 0.00 | 80 | 1012.0 |
| 20260505034449 | 72 | 187 | 0.0 | 0.9 | 0.00 | 0.00 | 0.00 | 80 | 1012.0 |
| 20260505033947 | 72 | 244 | 0.0 | 3.5 | 0.00 | 0.00 | 0.00 | 80 | 1012.0 |
| 20260505033443 | 72 | 204 | 0.0 | 1.7 | 0.00 | 0.00 | 0.00 | 79 | 1012.0 |
| 20260505032941 | 72 | 208 | 0.9 | 2.6 | 0.00 | 0.00 | 0.00 | 79 | 1011.9 |
| 20260505032439 | 72 | 177 | 0.9 | 0.9 | 0.00 | 0.00 | 0.00 | 79 | 1011.9 |
| 20260505031935 | 72 | 193 | 0.9 | 1.7 | 0.00 | 0.00 | 0.00 | 78 | 1011.9 |
| 20260505031432 | 72 | 213 | 0.0 | 1.7 | 0.00 | 0.00 | 0.00 | 78 | 1011.9 |
| 20260505030929 | 73 | 196 | 0.0 | 1.7 | 0.00 | 0.00 | 0.00 | 78 | 1011.9 |
| 20260505030424 | 73 | 208 | 0.0 | 1.7 | 0.00 | 0.00 | 0.00 | 77 | 1011.9 |
| 20260505025920 | 73 | 229 | 2.6 | 3.5 | 0.00 | 0.00 | 0.00 | 77 | 1012.0 |
| 20260505025418 | 73 | 192 | 0.0 | 1.7 | 0.00 | 0.00 | 0.00 | 77 | 1011.9 |
| 20260505024917 | 73 | 215 | 0.0 | 0.9 | 0.00 | 0.00 | 0.00 | 77 | 1012.0 |
| 20260505024414 | 73 | 217 | 0.9 | 1.7 | 0.00 | 0.00 | 0.00 | 77 | 1011.8 |
| 20260505023910 | 73 | 114 | 0.0 | 3.5 | 0.00 | 0.00 | 0.00 | 77 | 1011.9 |
| 20260505023408 | 73 | 154 | 0.9 | 1.7 | 0.00 | 0.00 | 0.00 | 76 | 1011.8 |
| 20260505022905 | 73 | 184 | 0.9 | 2.6 | 0.00 | 0.00 | 0.00 | 76 | 1011.9 |
| 20260505022402 | 73 | 208 | 0.0 | 0.9 | 0.00 | 0.00 | 0.00 | 76 | 1012.0 |
| 20260505021859 | 73 | 210 | 1.7 | 1.7 | 0.00 | 0.00 | 0.00 | 76 | 1011.9 |
| 20260505021355 | 73 | 277 | 0.0 | 1.7 | 0.00 | 0.00 | 0.00 | 75 | 1011.6 |
| 20260505020851 | 74 | 201 | 0.9 | 2.6 | 0.00 | 0.00 | 0.00 | 75 | 1011.7 |
| 20260505020347 | 74 | 213 | 1.7 | 2.6 | 0.00 | 0.00 | 0.00 | 75 | 1011.9 |
| 20260505015844 | 74 | 115 | 1.7 | 2.6 | 0.00 | 0.00 | 0.00 | 74 | 1011.9 |
| 20260505015341 | 74 | 168 | 0.9 | 2.6 | 0.00 | 0.00 | 0.00 | 74 | 1011.6 |
| 20260505014838 | 74 | 248 | 0.0 | 1.7 | 0.00 | 0.00 | 0.00 | 74 | 1011.6 |
| 20260505014335 | 74 | 220 | 0.0 | 5.2 | 0.00 | 0.00 | 0.00 | 74 | 1011.6 |
| 20260505013832 | 74 | 191 | 0.9 | 1.7 | 0.00 | 0.00 | 0.00 | 74 | 1011.5 |
| 20260505013329 | 74 | 110 | 0.9 | 2.6 | 0.00 | 0.00 | 0.00 | 74 | 1011.5 |
| 20260505012828 | 74 | 289 | 0.0 | 3.5 | 0.00 | 0.00 | 0.00 | 74 | 1011.4 |
| 20260505012325 | 74 | 196 | 0.9 | 0.9 | 0.00 | 0.00 | 0.00 | 74 | 1011.7 |
| 20260505011820 | 74 | 204 | 0.0 | 0.0 | 0.00 | 0.00 | 0.00 | 74 | 1011.7 |
| 20260505011318 | 74 | 118 | 1.7 | 3.5 | 0.00 | 0.00 | 0.00 | 73 | 1011.5 |
| 20260505010814 | 74 | 160 | 0.0 | 2.6 | 0.00 | 0.00 | 0.00 | 73 | 1011.7 |
| 20260505010310 | 74 | 159 | 1.7 | 2.6 | 0.00 | 0.00 | 0.00 | 72 | 1011.6 |
| 20260505005806 | 74 | 220 | 0.9 | 3.5 | 0.00 | 0.00 | 0.00 | 72 | 1011.3 |
| 20260505005304 | 75 | 213 | 0.9 | 5.2 | 0.00 | 0.00 | 0.00 | 71 | 1011.3 |
| 20260505004801 | 75 | 124 | 1.7 | 2.6 | 0.00 | 0.00 | 0.00 | 71 | 1011.4 |
| 20260505004256 | 75 | 245 | 0.9 | 1.7 | 0.00 | 0.00 | 0.00 | 70 | 1011.4 |
| 20260505003754 | 75 | 230 | 1.7 | 2.6 | 0.00 | 0.00 | 0.00 | 70 | 1011.3 |
| 20260505003251 | 75 | 120 | 0.9 | 5.2 | 0.00 | 0.00 | 0.00 | 70 | 1011.3 |
| 20260505002748 | 75 | 241 | 1.7 | 3.5 | 0.00 | 0.00 | 0.00 | 69 | 1011.2 |
| 20260505002245 | 76 | 255 | 1.7 | 8.7 | 0.00 | 0.00 | 0.00 | 68 | 1011.3 |
| 20260505001743 | 76 | 140 | 4.3 | 8.7 | 0.00 | 0.00 | 0.00 | 68 | 1011.5 |
| 20260505001240 | 76 | 227 | 0.0 | 3.5 | 0.00 | 0.00 | 0.00 | 68 | 1011.6 |
| 20260505000737 | 77 | 208 | 0.9 | 2.6 | 0.00 | 0.00 | 0.00 | 68 | 1011.7 |
| 20260505000235 | 77 | 299 | 1.7 | 2.6 | 0.00 | 0.00 | 0.00 | 68 | 1011.5 |
| 20260504235731 | 77 | 145 | 1.7 | 2.6 | 0.00 | 0.00 | 0.00 | 68 | 1011.6 |
| 20260504235227 | 76 | 117 | 0.9 | 5.2 | 0.00 | 0.00 | 0.00 | 68 | 1011.5 |
| 20260504234725 | 76 | 294 | 1.7 | 5.2 | 0.00 | 0.00 | 0.00 | 68 | 1011.3 |
| 20260504234222 | 77 | 195 | 0.9 | 5.2 | 0.00 | 0.00 | 0.00 | 68 | 1011.6 |
| 20260504233718 | 77 | 78 | 1.7 | 2.6 | 0.00 | 0.00 | 0.00 | 67 | 1011.8 |
| 20260504233214 | 77 | 228 | 2.6 | 5.2 | 0.00 | 0.00 | 0.00 | 67 | 1011.6 |
| 20260504232711 | 77 | 205 | 2.6 | 6.1 | 0.00 | 0.00 | 0.00 | 66 | 1011.8 |
| 20260504232208 | 77 | 204 | 1.7 | 5.2 | 0.00 | 0.00 | 0.00 | 67 | 1011.8 |
| 20260504231705 | 77 | 225 | 0.0 | 2.6 | 0.00 | 0.00 | 0.00 | 68 | 1011.8 |
| 20260504231201 | 77 | 187 | 2.6 | 3.5 | 0.00 | 0.00 | 0.00 | 67 | 1011.9 |
| 20260504230657 | 77 | 230 | 0.0 | 2.6 | 0.00 | 0.00 | 0.00 | 68 | 1012.0 |
| 20260504230156 | 77 | 175 | 1.7 | 2.6 | 0.00 | 0.00 | 0.00 | 67 | 1012.2 |
| 20260504225654 | 77 | 166 | 3.5 | 6.1 | 0.00 | 0.00 | 0.00 | 66 | 1012.1 |
| 20260504225149 | 77 | 245 | 0.9 | 3.5 | 0.00 | 0.00 | 0.00 | 66 | 1012.1 |
| 20260504224647 | 77 | 219 | 0.9 | 5.2 | 0.00 | 0.00 | 0.00 | 66 | 1012.2 |
| 20260504224144 | 77 | 122 | 0.9 | 0.9 | 0.00 | 0.00 | 0.00 | 67 | 1012.1 |
| 20260504223641 | 77 | 244 | 0.0 | 6.1 | 0.00 | 0.00 | 0.00 | 66 | 1012.2 |
| 20260504223136 | 77 | 142 | 0.9 | 2.6 | 0.00 | 0.00 | 0.00 | 66 | 1012.3 |
| 20260504222634 | 77 | 213 | 0.9 | 2.6 | 0.00 | 0.00 | 0.00 | 65 | 1012.4 |
| 20260504222131 | 77 | 229 | 1.7 | 5.2 | 0.00 | 0.00 | 0.00 | 65 | 1012.6 |
| 20260504221628 | 77 | 158 | 0.9 | 6.1 | 0.00 | 0.00 | 0.00 | 65 | 1012.6 |
| 20260504221125 | 77 | 252 | 1.7 | 6.1 | 0.00 | 0.00 | 0.00 | 64 | 1012.6 |
| 20260504220621 | 78 | 244 | 1.7 | 3.5 | 0.00 | 0.00 | 0.00 | 64 | 1012.7 |
| 20260504220119 | 78 | 245 | 0.0 | 3.5 | 0.00 | 0.00 | 0.00 | 64 | 1012.6 |
| 20260504215615 | 78 | 187 | 0.9 | 1.7 | 0.00 | 0.00 | 0.00 | 64 | 1012.5 |
| 20260504215113 | 78 | 221 | 1.7 | 3.5 | 0.00 | 0.00 | 0.00 | 63 | 1012.7 |
| 20260504214608 | 78 | 81 | 0.9 | 2.6 | 0.00 | 0.00 | 0.00 | 64 | 1012.8 |
| 20260504214105 | 78 | 218 | 1.7 | 6.1 | 0.00 | 0.00 | 0.00 | 63 | 1012.8 |
| 20260504213601 | 79 | 216 | 1.7 | 2.6 | 0.00 | 0.00 | 0.00 | 63 | 1012.9 |
| 20260504213058 | 79 | 275 | 0.9 | 3.5 | 0.00 | 0.00 | 0.00 | 62 | 1012.8 |
| 20260504212554 | 79 | 199 | 1.7 | 3.5 | 0.00 | 0.00 | 0.00 | 62 | 1012.9 |
| 20260504212052 | 80 | 245 | 0.9 | 2.6 | 0.00 | 0.00 | 0.00 | 62 | 1012.9 |
| 20260504211548 | 80 | 213 | 1.7 | 2.6 | 0.00 | 0.00 | 0.00 | 61 | 1012.8 |
| 20260504211045 | 80 | 125 | 1.7 | 5.2 | 0.00 | 0.00 | 0.00 | 60 | 1013.1 |
| 20260504210542 | 81 | 167 | 2.6 | 3.5 | 0.00 | 0.00 | 0.00 | 58 | 1013.1 |
| 20260504210039 | 82 | 169 | 1.7 | 5.2 | 0.00 | 0.00 | 0.00 | 57 | 1013.1 |
| 20260504205537 | 81 | 301 | 0.9 | 2.6 | 0.00 | 0.00 | 0.00 | 58 | 1013.1 |
| 20260504205035 | 81 | 108 | 0.9 | 1.7 | 0.00 | 0.00 | 0.00 | 58 | 1013.1 |
| 20260504204532 | 82 | 128 | 0.9 | 6.1 | 0.00 | 0.00 | 0.00 | 57 | 1013.3 |
| 20260504204031 | 82 | 241 | 0.9 | 2.6 | 0.00 | 0.00 | 0.00 | 57 | 1013.4 |
| 20260504203529 | 81 | 254 | 0.9 | 3.5 | 0.00 | 0.00 | 0.00 | 57 | 1013.4 |
| 20260504203026 | 81 | 257 | 1.7 | 2.6 | 0.00 | 0.00 | 0.00 | 57 | 1013.3 |
| 20260504202521 | 82 | 195 | 0.9 | 1.7 | 0.00 | 0.00 | 0.00 | 57 | 1013.7 |
| 20260504202019 | 82 | 76 | 0.9 | 2.6 | 0.00 | 0.00 | 0.00 | 57 | 1013.5 |
| 20260504201516 | 82 | 234 | 1.7 | 2.6 | 0.00 | 0.00 | 0.00 | 56 | 1013.8 |
| 20260504201014 | 81 | 190 | 2.6 | 5.2 | 0.00 | 0.00 | 0.00 | 57 | 1013.6 |
| 20260504200510 | 81 | 300 | 0.0 | 5.2 | 0.00 | 0.00 | 0.00 | 58 | 1013.8 |
| 20260504200007 | 81 | 144 | 0.0 | 2.6 | 0.00 | 0.00 | 0.00 | 57 | 1013.9 |
| 20260504195503 | 81 | 288 | 0.9 | 5.2 | 0.00 | 0.00 | 0.00 | 57 | 1014.0 |
| 20260504194959 | 81 | 319 | 0.0 | 1.7 | 0.00 | 0.00 | 0.00 | 57 | 1014.1 |
| 20260504194455 | 82 | 130 | 2.6 | 6.1 | 0.00 | 0.00 | 0.00 | 56 | 1013.8 |
| 20260504193951 | 82 | 267 | 0.9 | 2.6 | 0.00 | 0.00 | 0.00 | 56 | 1014.1 |
| 20260504193449 | 82 | 276 | 0.9 | 0.9 | 0.00 | 0.00 | 0.00 | 56 | 1014.2 |
| 20260504192947 | 81 | 264 | 0.9 | 2.6 | 0.00 | 0.00 | 0.00 | 58 | 1014.4 |
| 20260504192444 | 82 | 272 | 2.6 | 5.2 | 0.00 | 0.00 | 0.00 | 55 | 1014.5 |
| 20260504191943 | 82 | 282 | 2.6 | 7.0 | 0.00 | 0.00 | 0.00 | 54 | 1014.3 |
| 20260504191441 | 83 | 216 | 2.6 | 6.1 | 0.00 | 0.00 | 0.00 | 53 | 1014.4 |
| 20260504190935 | 83 | 194 | 0.9 | 1.7 | 0.00 | 0.00 | 0.00 | 56 | 1014.5 |
| 20260504190431 | 83 | 312 | 0.9 | 2.6 | 0.00 | 0.00 | 0.00 | 52 | 1014.4 |
| 20260504185928 | 82 | 125 | 1.7 | 3.5 | 0.00 | 0.00 | 0.00 | 56 | 1014.3 |
| 20260504185426 | 82 | 250 | 0.9 | 5.2 | 0.00 | 0.00 | 0.00 | 55 | 1014.6 |
| 20260504184921 | 82 | 200 | 0.9 | 2.6 | 0.00 | 0.00 | 0.00 | 56 | 1014.6 |
| 20260504184417 | 82 | 58 | 0.9 | 6.1 | 0.00 | 0.00 | 0.00 | 55 | 1014.5 |
| 20260504183913 | 82 | 252 | 1.7 | 2.6 | 0.00 | 0.00 | 0.00 | 55 | 1014.3 |
| 20260504183411 | 82 | 189 | 3.5 | 5.2 | 0.00 | 0.00 | 0.00 | 54 | 1014.5 |
| 20260504182909 | 82 | 154 | 1.7 | 3.5 | 0.00 | 0.00 | 0.00 | 53 | 1014.6 |
| 20260504182405 | 82 | 274 | 0.0 | 6.1 | 0.00 | 0.00 | 0.00 | 54 | 1014.8 |
| 20260504181902 | 81 | 152 | 0.9 | 5.2 | 0.00 | 0.00 | 0.00 | 55 | 1014.9 |
| 20260504181359 | 81 | 210 | 2.6 | 6.1 | 0.00 | 0.00 | 0.00 | 55 | 1015.1 |
| 20260504180858 | 81 | 290 | 1.7 | 1.7 | 0.00 | 0.00 | 0.00 | 57 | 1015.0 |
| 20260504180356 | 81 | 225 | 2.6 | 3.5 | 0.00 | 0.00 | 0.00 | 57 | 1015.1 |
| 20260504175854 | 81 | 127 | 1.7 | 3.5 | 0.00 | 0.00 | 0.00 | 57 | 1015.1 |
| 20260504175350 | 81 | 126 | 2.6 | 5.2 | 0.00 | 0.00 | 0.00 | 55 | 1015.2 |
| 20260504174849 | 81 | 182 | 1.7 | 7.0 | 0.00 | 0.00 | 0.00 | 56 | 1015.2 |
| 20260504174346 | 80 | 18 | 0.0 | 5.2 | 0.00 | 0.00 | 0.00 | 57 | 1015.2 |
| 20260504173843 | 81 | 144 | 1.7 | 2.6 | 0.00 | 0.00 | 0.00 | 54 | 1015.4 |
| 20260504173340 | 80 | 234 | 0.9 | 2.6 | 0.00 | 0.00 | 0.00 | 53 | 1015.6 |
| 20260504172837 | 80 | 148 | 3.5 | 5.2 | 0.00 | 0.00 | 0.00 | 55 | 1015.6 |
| 20260504172333 | 81 | 241 | 0.9 | 5.2 | 0.00 | 0.00 | 0.00 | 55 | 1015.4 |
| 20260504171829 | 81 | 176 | 4.3 | 7.8 | 0.00 | 0.00 | 0.00 | 54 | 1015.7 |
| 20260504171326 | 80 | 234 | 0.9 | 5.2 | 0.00 | 0.00 | 0.00 | 58 | 1015.6 |
| 20260504170824 | 80 | 213 | 1.7 | 6.1 | 0.00 | 0.00 | 0.00 | 57 | 1015.7 |
| 20260504170320 | 80 | 145 | 2.6 | 3.5 | 0.00 | 0.00 | 0.00 | 57 | 1015.8 |
| 20260504160238 | 78 | 240 | 2.6 | 3.5 | 0.00 | 0.00 | 0.00 | 58 | 1016.5 |